Starlink 31157

operational
NORAD ID: 58735 Int'l Des: 2024-005 Owner: SPXS Country: US Constellation: starlink
LEOCIRCULAR

Über Starlink 31157

Beschreibung wird geladen...

Live-Position

3D-Globus wird geladen...

Nächste Überflüge

Höhenverlauf

Altitude vs Time

uPlot chart will show altitude changes over time

Zweizeiliger Elementsatz

1 58735U 24005H 25303.76526286 .00000539 00000-0 54958-4 0 9996
2 58735 43.0045 207.9331 0001320 266.1397 93.9295 15.02535583100871
Epoch: 30. Okt. 2025 • Age: 17 hours

Aktueller Status

Höhe 559.5 km
Geschwindigkeit 7.59 km/s
Subsatellitenpunkt 25.18°N, 149.87°E
Startdatum 7. Jan. 2024
Alter 1.8 years
Typ internet

Technische Details

Klassifizierung Payload
Masse 730.00 kg
Trockenmasse 700.00 kg
Gesamtmasse 730.00 kg
Länge 0.30 m
Durchmesser 4.10 m
Spannweite 29.00 m
Form Box + pan
Hersteller SPXS
Bus-Typ Starlink V2M
Phasenstatus In Orbit
Besitzer/Staat SPXS/US

Große Konstellationen

Loading constellations...